DWI300 MDSD-MKJP

Flight info

Callsign DWI300
Flight time 1h 11m
Altitude 32000
Route ETBOD2J ETBOD UL577 KEBET UG633 MLY ELSER6
Aircraft B38M/M-SDE1FGHILORVWXY/HB1

Departure

Time 2026-05-08 15:47
Airport Las Américas International Airport (MDSD)

Arrival

Time 2026-05-08 16:59
Airport Norman Manley International Airport (MKJP)
Time Latitude Longitude Altitude Speed Heading
2026-05-08 15:36 18.43247 -69.67652 70 ft 0 kts 217°
2026-05-08 15:38 18.43266 -69.67636 64 ft 4 kts 217°
2026-05-08 15:38 18.43288 -69.67619 63 ft 4 kts 217°
2026-05-08 15:38 18.43309 -69.67601 65 ft 4 kts 217°
2026-05-08 15:39 18.43328 -69.67586 64 ft 4 kts 223°
2026-05-08 15:39 18.43342 -69.67564 63 ft 4 kts 265°
2026-05-08 15:39 18.43334 -69.67543 60 ft 4 kts 323°
2026-05-08 15:39 18.43310 -69.67530 62 ft 4 kts 340°
2026-05-08 15:40 18.43297 -69.67526 59 ft 2 kts 341°
2026-05-08 15:40 18.43297 -69.67525 59 ft 0 kts 341°
2026-05-08 15:40 18.43297 -69.67526 59 ft 0 kts 341°
2026-05-08 15:43 18.43318 -69.67533 57 ft 8 kts 340°
2026-05-08 15:43 18.43387 -69.67534 66 ft 12 kts 32°
2026-05-08 15:43 18.43448 -69.67526 69 ft 8 kts 329°
2026-05-08 15:43 18.43493 -69.67545 66 ft 7 kts 343°
2026-05-08 15:44 18.43544 -69.67565 70 ft 9 kts 338°
2026-05-08 15:44 18.43607 -69.67593 67 ft 11 kts 336°
2026-05-08 15:44 18.43684 -69.67624 68 ft 13 kts 340°
2026-05-08 15:44 18.43775 -69.67659 71 ft 15 kts 340°
2026-05-08 15:45 18.43877 -69.67700 67 ft 17 kts 339°
2026-05-08 15:45 18.43993 -69.67748 71 ft 18 kts 339°
2026-05-08 15:45 18.44076 -69.67780 69 ft 10 kts 340°
2026-05-08 15:45 18.44131 -69.67761 68 ft 8 kts 52°
2026-05-08 15:46 18.44151 -69.67706 68 ft 9 kts 67°
2026-05-08 15:46 18.44177 -69.67638 71 ft 11 kts 69°
2026-05-08 15:46 18.44194 -69.67556 68 ft 12 kts 109°
2026-05-08 15:46 18.44117 -69.67511 71 ft 23 kts 163°
2026-05-08 15:47 18.43690 -69.67355 72 ft 105 kts 161°
2026-05-08 15:47 18.42770 -69.67008 88 ft 172 kts 159°
2026-05-08 15:47 18.41487 -69.66578 528 ft 204 kts 161°
2026-05-08 15:47 18.40119 -69.66090 1508 ft 218 kts 159°
2026-05-08 15:48 18.37531 -69.65666 2993 ft 244 kts 195°
2026-05-08 15:48 18.36129 -69.66722 3850 ft 260 kts 234°
2026-05-08 15:48 18.35281 -69.69117 5204 ft 266 kts 255°
2026-05-08 15:49 18.34963 -69.70381 5831 ft 269 kts 255°
2026-05-08 15:49 18.34313 -69.72916 7154 ft 275 kts 253°
2026-05-08 15:49 18.33751 -69.74851 8005 ft 281 kts 252°
2026-05-08 15:49 18.33142 -69.76855 8856 ft 290 kts 253°
2026-05-08 15:50 18.32891 -69.78284 9289 ft 299 kts 270°
2026-05-08 15:50 18.33061 -69.80449 10190 ft 301 kts 276°
2026-05-08 15:50 18.33250 -69.82676 10964 ft 307 kts 276°
2026-05-08 15:50 18.33449 -69.84926 11848 ft 309 kts 277°
2026-05-08 15:51 18.33655 -69.87170 12642 ft 313 kts 277°
2026-05-08 15:51 18.33869 -69.89459 13453 ft 316 kts 277°
2026-05-08 15:51 18.34089 -69.91791 14202 ft 320 kts 277°
2026-05-08 15:51 18.34312 -69.94148 14889 ft 324 kts 278°
2026-05-08 15:52 18.34536 -69.96517 15422 ft 334 kts 278°
2026-05-08 15:52 18.34772 -69.99022 15754 ft 350 kts 278°
2026-05-08 15:52 18.35016 -70.01607 16040 ft 365 kts 278°
2026-05-08 15:52 18.35269 -70.04302 16507 ft 373 kts 278°
2026-05-08 15:53 18.35526 -70.07030 17143 ft 375 kts 278°
2026-05-08 15:53 18.35784 -70.09780 17702 ft 380 kts 278°
2026-05-08 15:53 18.36047 -70.12580 18275 ft 384 kts 279°
2026-05-08 15:53 18.36306 -70.15360 18761 ft 387 kts 279°
2026-05-08 15:54 18.36572 -70.18205 19272 ft 390 kts 279°
2026-05-08 15:54 18.36838 -70.21058 19788 ft 392 kts 279°
2026-05-08 15:54 18.37103 -70.23907 20273 ft 395 kts 279°
2026-05-08 15:54 18.37372 -70.26798 20729 ft 397 kts 279°
2026-05-08 15:55 18.37643 -70.29716 21201 ft 400 kts 279°
2026-05-08 15:55 18.38184 -70.35561 22159 ft 405 kts 279°
2026-05-08 15:55 18.38456 -70.38499 22613 ft 408 kts 279°
2026-05-08 15:56 18.38731 -70.41486 23099 ft 411 kts 278°
2026-05-08 15:56 18.39007 -70.44497 23552 ft 414 kts 278°
2026-05-08 15:56 18.39285 -70.47526 23961 ft 416 kts 278°
2026-05-08 15:56 18.39566 -70.50592 24323 ft 419 kts 279°
2026-05-08 15:57 18.39842 -70.53616 24738 ft 421 kts 278°
2026-05-08 15:57 18.40124 -70.56695 25112 ft 424 kts 278°
2026-05-08 15:57 18.40408 -70.59816 25523 ft 426 kts 278°
2026-05-08 15:57 18.40688 -70.62895 25907 ft 428 kts 278°
2026-05-08 15:58 18.40972 -70.66029 26282 ft 431 kts 278°
2026-05-08 15:58 18.41258 -70.69186 26692 ft 432 kts 278°
2026-05-08 15:58 18.41541 -70.72309 27180 ft 432 kts 278°
2026-05-08 15:58 18.41826 -70.75470 27687 ft 431 kts 278°
2026-05-08 15:59 18.42106 -70.78580 28197 ft 429 kts 278°
2026-05-08 15:59 18.42389 -70.81718 28719 ft 428 kts 278°
2026-05-08 15:59 18.42670 -70.84859 29243 ft 427 kts 278°
2026-05-08 15:59 18.42946 -70.87936 29731 ft 426 kts 278°
2026-05-08 16:00 18.43225 -70.91053 30220 ft 425 kts 278°
2026-05-08 16:00 18.43501 -70.94147 30640 ft 424 kts 278°
2026-05-08 16:00 18.43775 -70.97217 31085 ft 422 kts 278°
2026-05-08 16:00 18.44049 -71.00295 31518 ft 421 kts 278°
2026-05-08 16:01 18.44322 -71.03370 31930 ft 420 kts 278°
2026-05-08 16:01 18.44593 -71.06427 32323 ft 419 kts 278°
2026-05-08 16:01 18.44866 -71.09514 32424 ft 427 kts 278°
2026-05-08 16:01 18.45142 -71.12640 32438 ft 436 kts 278°
2026-05-08 16:02 18.45715 -71.19146 32510 ft 454 kts 278°
2026-05-08 16:02 18.46305 -71.25872 32576 ft 469 kts 278°
2026-05-08 16:03 18.46605 -71.29309 32982 ft 468 kts 278°
2026-05-08 16:03 18.46899 -71.32679 33239 ft 470 kts 277°
2026-05-08 16:03 18.47201 -71.36145 33485 ft 473 kts 277°
2026-05-08 16:03 18.47500 -71.39595 33844 ft 472 kts 277°
2026-05-08 16:04 18.47800 -71.43053 34230 ft 470 kts 277°
2026-05-08 16:04 18.48093 -71.46435 34559 ft 469 kts 277°
2026-05-08 16:04 18.48388 -71.49856 34876 ft 468 kts 277°
2026-05-08 16:04 18.48682 -71.53269 35187 ft 467 kts 277°
2026-05-08 16:05 18.48976 -71.56689 35508 ft 466 kts 277°
2026-05-08 16:05 18.49265 -71.60063 35813 ft 465 kts 277°
2026-05-08 16:05 18.49555 -71.63446 36127 ft 464 kts 277°
2026-05-08 16:05 18.49845 -71.66838 36438 ft 463 kts 277°
2026-05-08 16:06 18.50133 -71.70223 36739 ft 462 kts 277°
2026-05-08 16:06 18.50417 -71.73561 37018 ft 461 kts 277°
2026-05-08 16:06 18.50587 -71.75559 37189 ft 459 kts 277°
2026-05-08 16:06 18.50866 -71.78840 37167 ft 446 kts 277°
2026-05-08 16:07 18.51141 -71.82089 37029 ft 455 kts 277°
2026-05-08 16:07 18.51426 -71.85455 37013 ft 460 kts 277°
2026-05-08 16:07 18.51781 -71.88810 37306 ft 458 kts 281°
2026-05-08 16:07 18.52286 -71.92134 37543 ft 458 kts 280°
2026-05-08 16:08 18.52762 -71.95419 37802 ft 457 kts 280°
2026-05-08 16:08 18.53233 -71.98738 38013 ft 457 kts 280°
2026-05-08 16:08 18.54154 -72.05315 38026 ft 454 kts 280°
2026-05-08 16:09 18.55072 -72.11891 38014 ft 454 kts 279°
2026-05-08 16:09 18.55990 -72.18486 38024 ft 454 kts 279°
2026-05-08 16:10 18.56905 -72.25079 38019 ft 454 kts 279°
2026-05-08 16:10 18.57381 -72.31678 38015 ft 454 kts 263°
2026-05-08 16:11 18.56555 -72.38279 38018 ft 457 kts 264°
2026-05-08 16:11 18.55678 -72.44935 38016 ft 457 kts 263°
2026-05-08 16:12 18.54780 -72.51531 38018 ft 456 kts 263°
2026-05-08 16:12 18.53877 -72.58133 38010 ft 456 kts 263°
2026-05-08 16:13 18.52971 -72.64739 38008 ft 456 kts 263°
2026-05-08 16:13 18.52059 -72.71364 38012 ft 456 kts 263°
2026-05-08 16:14 18.51149 -72.77956 38020 ft 456 kts 263°
2026-05-08 16:14 18.50232 -72.84587 38021 ft 456 kts 263°
2026-05-08 16:15 18.49325 -72.91173 38030 ft 456 kts 263°
2026-05-08 16:15 18.48440 -72.97770 38038 ft 456 kts 263°
2026-05-08 16:16 18.47545 -73.04406 38035 ft 456 kts 263°
2026-05-08 16:16 18.46656 -73.10989 38051 ft 455 kts 263°
2026-05-08 16:17 18.45911 -73.16487 38041 ft 455 kts 263°
2026-05-08 16:17 18.44864 -73.24200 38036 ft 455 kts 263°
2026-05-08 16:18 18.43961 -73.30822 38043 ft 455 kts 263°
2026-05-08 16:18 18.43064 -73.37391 38047 ft 455 kts 263°
2026-05-08 16:19 18.42161 -73.43982 38046 ft 455 kts 263°
2026-05-08 16:19 18.41254 -73.50595 38043 ft 455 kts 263°
2026-05-08 16:20 18.40344 -73.57197 38049 ft 455 kts 263°
2026-05-08 16:20 18.39450 -73.63681 38044 ft 455 kts 263°
2026-05-08 16:21 18.38532 -73.70308 38049 ft 456 kts 263°
2026-05-08 16:21 18.37621 -73.76884 38047 ft 455 kts 263°
2026-05-08 16:22 18.37182 -73.80033 38060 ft 455 kts 263°
2026-05-08 16:22 18.36483 -73.85058 38049 ft 456 kts 263°
2026-05-08 16:23 18.35556 -73.91690 38056 ft 455 kts 263°
2026-05-08 16:23 18.34636 -73.98274 38049 ft 456 kts 263°
2026-05-08 16:24 18.33711 -74.04873 38052 ft 455 kts 263°
2026-05-08 16:24 18.32897 -74.10637 38051 ft 456 kts 263°
2026-05-08 16:25 18.31964 -74.17279 38045 ft 456 kts 263°
2026-05-08 16:25 18.31035 -74.23854 38046 ft 456 kts 263°
2026-05-08 16:26 18.30101 -74.30449 38042 ft 456 kts 263°
2026-05-08 16:26 18.29166 -74.37033 38038 ft 456 kts 263°
2026-05-08 16:27 18.28225 -74.43642 38039 ft 456 kts 263°
2026-05-08 16:27 18.27282 -74.50247 38035 ft 456 kts 263°
2026-05-08 16:28 18.26341 -74.56827 38037 ft 456 kts 263°
2026-05-08 16:28 18.25392 -74.63450 38033 ft 456 kts 263°
2026-05-08 16:29 18.24458 -74.69863 38039 ft 456 kts 263°
2026-05-08 16:29 18.23483 -74.76562 38031 ft 456 kts 263°
2026-05-08 16:30 18.22521 -74.83146 38032 ft 456 kts 263°
2026-05-08 16:30 18.21549 -74.89782 38029 ft 456 kts 263°
2026-05-08 16:31 18.20584 -74.96352 38024 ft 456 kts 263°
2026-05-08 16:31 18.19618 -75.02919 38031 ft 456 kts 263°
2026-05-08 16:32 18.19128 -75.06240 37839 ft 458 kts 263°
2026-05-08 16:32 18.18639 -75.09554 37599 ft 457 kts 262°
2026-05-08 16:32 18.18150 -75.12859 37339 ft 457 kts 262°
2026-05-08 16:32 18.17665 -75.16141 37088 ft 456 kts 262°
2026-05-08 16:33 18.17174 -75.19450 36835 ft 455 kts 262°
2026-05-08 16:33 18.16694 -75.22685 36409 ft 450 kts 262°
2026-05-08 16:33 18.16209 -75.25955 35665 ft 453 kts 262°
2026-05-08 16:33 18.15721 -75.29238 35055 ft 453 kts 262°
2026-05-08 16:34 18.15239 -75.32471 34587 ft 449 kts 262°
2026-05-08 16:34 18.14754 -75.35727 34112 ft 446 kts 262°
2026-05-08 16:34 18.14274 -75.38945 33540 ft 444 kts 262°
2026-05-08 16:34 18.13801 -75.42107 32995 ft 441 kts 262°
2026-05-08 16:35 18.13326 -75.45287 32497 ft 438 kts 262°
2026-05-08 16:35 18.12854 -75.48438 32007 ft 434 kts 262°
2026-05-08 16:35 18.12388 -75.51547 31516 ft 432 kts 262°
2026-05-08 16:35 18.11918 -75.54677 31020 ft 429 kts 262°
2026-05-08 16:36 18.11457 -75.57743 30533 ft 427 kts 262°
2026-05-08 16:36 18.10995 -75.60815 30039 ft 425 kts 262°
2026-05-08 16:36 18.10532 -75.63895 29390 ft 425 kts 263°
2026-05-08 16:36 18.10065 -75.66991 28506 ft 431 kts 263°
2026-05-08 16:37 18.09754 -75.69054 28113 ft 430 kts 263°
2026-05-08 16:37 18.09135 -75.73146 27568 ft 423 kts 263°
2026-05-08 16:37 18.08822 -75.75218 27251 ft 420 kts 263°
2026-05-08 16:37 18.08368 -75.78220 26785 ft 417 kts 263°
2026-05-08 16:38 18.07913 -75.81219 26315 ft 414 kts 263°
2026-05-08 16:38 18.07461 -75.84200 25852 ft 412 kts 263°
2026-05-08 16:38 18.07010 -75.87170 25386 ft 409 kts 264°
2026-05-08 16:38 18.06566 -75.90096 24928 ft 408 kts 264°
2026-05-08 16:39 18.06115 -75.93054 24462 ft 407 kts 264°
2026-05-08 16:39 18.05671 -75.95971 23999 ft 407 kts 264°
2026-05-08 16:39 18.05223 -75.98910 23533 ft 407 kts 264°
2026-05-08 16:39 18.04777 -76.01830 22990 ft 406 kts 264°
2026-05-08 16:40 18.04327 -76.04773 22525 ft 404 kts 264°
2026-05-08 16:40 18.03886 -76.07655 22073 ft 402 kts 264°
2026-05-08 16:40 18.03442 -76.10555 21612 ft 400 kts 264°
2026-05-08 16:40 18.02998 -76.13451 21157 ft 398 kts 263°
2026-05-08 16:41 18.02563 -76.16287 20707 ft 397 kts 263°
2026-05-08 16:41 18.02119 -76.19173 20250 ft 396 kts 263°
2026-05-08 16:41 18.01679 -76.22039 19787 ft 395 kts 263°
2026-05-08 16:42 18.00808 -76.27697 18893 ft 395 kts 263°
2026-05-08 16:42 18.00366 -76.30565 18432 ft 395 kts 262°
2026-05-08 16:42 17.99925 -76.33417 17910 ft 396 kts 263°
2026-05-08 16:42 17.99492 -76.36230 17463 ft 390 kts 262°
2026-05-08 16:43 17.99056 -76.39050 16977 ft 389 kts 262°
2026-05-08 16:43 17.98620 -76.41866 16520 ft 387 kts 262°
2026-05-08 16:43 17.98186 -76.44662 16065 ft 387 kts 262°
2026-05-08 16:43 17.97759 -76.47421 15596 ft 386 kts 262°
2026-05-08 16:44 17.97325 -76.50209 15125 ft 385 kts 261°
2026-05-08 16:44 17.96892 -76.52994 14666 ft 385 kts 261°
2026-05-08 16:44 17.96463 -76.55755 14220 ft 385 kts 261°
2026-05-08 16:44 17.96030 -76.58535 13712 ft 380 kts 260°
2026-05-08 16:45 17.95613 -76.61214 13235 ft 374 kts 261°
2026-05-08 16:45 17.95194 -76.63901 12760 ft 367 kts 261°
2026-05-08 16:45 17.94790 -76.66496 12351 ft 360 kts 261°
2026-05-08 16:45 17.94384 -76.69090 11911 ft 356 kts 261°
2026-05-08 16:46 17.93986 -76.71643 11441 ft 352 kts 261°
2026-05-08 16:46 17.93591 -76.74162 11021 ft 346 kts 261°
2026-05-08 16:46 17.93209 -76.76604 10604 ft 340 kts 261°
2026-05-08 16:46 17.92862 -76.79052 10317 ft 332 kts 262°
2026-05-08 16:47 17.92545 -76.81420 10118 ft 320 kts 262°
2026-05-08 16:47 17.92236 -76.83712 9748 ft 315 kts 262°
2026-05-08 16:47 17.91931 -76.85954 9310 ft 313 kts 262°
2026-05-08 16:47 17.91624 -76.88217 8896 ft 310 kts 262°
2026-05-08 16:48 17.91321 -76.90446 8493 ft 306 kts 261°
2026-05-08 16:48 17.91021 -76.92651 8112 ft 302 kts 261°
2026-05-08 16:48 17.90727 -76.94810 7745 ft 300 kts 261°
2026-05-08 16:48 17.90436 -76.96947 7365 ft 298 kts 261°
2026-05-08 16:49 17.90137 -76.99148 6990 ft 300 kts 261°
2026-05-08 16:49 17.89845 -77.01312 6553 ft 303 kts 261°
2026-05-08 16:49 17.89545 -77.03515 6154 ft 302 kts 262°
2026-05-08 16:49 17.89658 -77.05670 5779 ft 301 kts 287°
2026-05-08 16:50 17.90689 -77.07526 5412 ft 291 kts 319°
2026-05-08 16:50 17.92422 -77.08486 5147 ft 279 kts 353°
2026-05-08 16:50 17.94277 -77.08347 4912 ft 266 kts 20°
2026-05-08 16:50 17.96039 -77.07792 4723 ft 262 kts 17°
2026-05-08 16:51 17.97818 -77.07354 4399 ft 264 kts 15°
2026-05-08 16:51 17.99622 -77.06908 4026 ft 262 kts 17°
2026-05-08 16:51 18.01255 -77.06248 4005 ft 250 kts 36°
2026-05-08 16:51 18.02392 -77.04902 3704 ft 249 kts 67°
2026-05-08 16:52 18.02663 -77.03120 3360 ft 251 kts 97°
2026-05-08 16:52 18.02250 -77.01342 3021 ft 251 kts 104°
2026-05-08 16:52 18.01833 -76.99564 2838 ft 246 kts 104°
2026-05-08 16:52 18.01491 -76.97854 2853 ft 238 kts 103°
2026-05-08 16:53 18.00986 -76.96157 2826 ft 230 kts 110°
2026-05-08 16:55 18.00639 -76.95241 2828 ft 226 kts 112°
2026-05-08 16:55 18.00004 -76.93713 2671 ft 230 kts 112°
2026-05-08 16:55 17.99344 -76.92187 2411 ft 227 kts 114°
2026-05-08 16:56 17.98677 -76.90736 2006 ft 217 kts 121°
2026-05-08 16:56 17.97749 -76.89572 1811 ft 197 kts 131°
2026-05-08 16:56 17.96998 -76.88483 1765 ft 171 kts 115°
2026-05-08 16:56 17.96730 -76.87325 1657 ft 157 kts 101°
2026-05-08 16:57 17.96510 -76.86265 1491 ft 141 kts 117°
2026-05-08 16:57 17.96091 -76.85358 1465 ft 139 kts 124°
2026-05-08 16:57 17.95649 -76.84430 1312 ft 142 kts 116°
2026-05-08 16:57 17.95334 -76.83460 915 ft 142 kts 107°
2026-05-08 16:58 17.95018 -76.82495 616 ft 139 kts 116°
2026-05-08 16:58 17.94654 -76.81549 391 ft 139 kts 118°
2026-05-08 16:58 17.94285 -76.80600 209 ft 140 kts 116°
2026-05-08 16:58 17.93918 -76.79667 31 ft 133 kts 114°
2026-05-08 16:59 17.93614 -76.78883 17 ft 94 kts 112°
2026-05-08 16:59 17.93449 -76.78453 16 ft 44 kts 111°
2026-05-08 16:59 17.93402 -76.78218 18 ft 27 kts 86°
2026-05-08 16:59 17.93420 -76.78053 17 ft 23 kts 81°
2026-05-08 17:00 17.93463 -76.77972 16 ft 8 kts 14°
2026-05-08 17:00 17.93497 -76.77972 17 ft 1 kts 357°
2026-05-08 17:00 17.93513 -76.77973 16 ft 4 kts 355°
2026-05-08 17:00 17.93548 -76.77976 16 ft 4 kts 355°
2026-05-08 17:01 17.93561 -76.77978 16 ft 0 kts 355°